TYW24 UKBB-LOWI

Flight info

Callsign TYW24
Flight time N/A
Altitude 40000
Route KAFEL N164 LAPVA/K0787F260 P27 PIGUM/K0787F400 P27 MALBE/N0425F400 DCT TAKOS DCT SLC DCT MAREG DCT BARUG DCT NANIT NANIT2A
Aircraft C56X/M-SDFGLM3ORVWY/SB1

Departure

Time 2025-10-09 15:09
Airport Boryspil International Airport (UKBB)

Arrival

Time N/A
Airport Innsbruck Airport (LOWI)
Time Latitude Longitude Altitude Speed Heading
2025-10-09 14:43 50.33574 30.89794 410 ft 0 kts
2025-10-09 15:00 50.33581 30.89796 410 ft 2 kts 14°
2025-10-09 15:00 50.33604 30.89845 410 ft 7 kts 90°
2025-10-09 15:01 50.33596 30.90032 409 ft 8 kts 58°
2025-10-09 15:01 50.33608 30.90122 409 ft 8 kts 52°
2025-10-09 15:02 50.33691 30.90147 408 ft 6 kts
2025-10-09 15:02 50.33836 30.90159 406 ft 14 kts
2025-10-09 15:03 50.34068 30.90174 406 ft 18 kts
2025-10-09 15:03 50.34359 30.90200 404 ft 22 kts
2025-10-09 15:04 50.34705 30.90222 402 ft 25 kts
2025-10-09 15:04 50.35072 30.90249 401 ft 25 kts
2025-10-09 15:05 50.35428 30.90274 399 ft 23 kts
2025-10-09 15:05 50.35592 30.90285 399 ft 22 kts
2025-10-09 15:06 50.35898 30.90311 399 ft 19 kts
2025-10-09 15:06 50.36067 30.90556 397 ft 13 kts 116°
2025-10-09 15:07 50.35874 30.90637 396 ft 38 kts 184°
2025-10-09 15:07 50.34312 30.90536 784 ft 151 kts 183°
2025-10-09 15:08 50.31961 30.89970 2401 ft 186 kts 195°
2025-10-09 15:08 50.29356 30.89522 4491 ft 195 kts 177°
2025-10-09 15:09 50.28016 30.89706 5578 ft 194 kts 173°
2025-10-09 15:09 50.25460 30.90330 7382 ft 184 kts 168°
2025-10-09 15:10 50.22833 30.90780 9087 ft 199 kts 182°
2025-10-09 15:10 50.18605 30.90717 12215 ft 214 kts 190°
2025-10-09 15:11 50.16806 30.87615 14287 ft 220 kts 285°
2025-10-09 15:11 50.19168 30.84958 16539 ft 229 kts 339°
2025-10-09 15:12 50.21843 30.82342 19042 ft 238 kts 313°
2025-10-09 15:12 50.23519 30.77863 21400 ft 250 kts 291°
2025-10-09 15:13 50.23892 30.75255 22465 ft 254 kts 273°
2025-10-09 15:13 50.23809 30.69682 24701 ft 262 kts 267°
2025-10-09 15:14 50.23266 30.54723 29639 ft 284 kts 267°
2025-10-09 15:16 50.22249 30.28563 36052 ft 320 kts 266°
2025-10-09 15:18 50.20988 29.98041 40005 ft 419 kts 266°